Location: Alafon
(8.4500°N, 4.2333°E)
Time: 01:35:31
(UTC+00:00)

Cosmos 2219 Rocket - Pass Details

Date: 05 July 2020
Orbit: 827 x 847 km, 71.0° (Epoch: 06 August)

Event Time Altitude Azimuth Distance (km) Brightness Sun altitude
Exits shadow 20:30:49 19° 17° (NNE) 1,860 4.1 -32.6°
Drops below altitude 10° 20:32:19 10° 17° (NNE) 2,422 4.7 -32.9°
Sets 20:34:44 0° 17° (NNE) 3,355 5.5 -33.4°
